K5NCO Weather Reports


Display with metric or nautical units.
time (UTC)temp
F
wind
direction
speed
MPH
gust
MPH
rain 1hr
in
rain 24hr
in
rain mn
in
humidity
%
barometer
mb
20240530013016 83 35 0.0 0.0 0.00 0.15 0.15 67 1016.1
20240530012514 83 268 0.0 0.0 0.00 0.15 0.15 67 1016.0
20240530012014 83 285 0.0 0.0 0.00 0.15 0.15 67 1016.1
20240530011448 84 25 2.0 3.0 0.00 0.15 0.15 66 1016.0
20240530010947 84 316 0.0 1.0 0.00 0.15 0.15 66 1015.9
20240530010446 84 16 2.0 3.0 0.00 0.15 0.15 65 1015.8
20240530005945 85 54 0.0 1.0 0.00 0.15 0.15 65 1015.9
20240530005443 85 184 0.0 0.0 0.00 0.15 0.15 64 1015.8
20240530004934 85 19 2.0 2.0 0.00 0.15 0.15 64 1016.0
20240530004432 85 180 1.0 2.0 0.00 0.15 0.15 64 1015.9
20240530003931 85 166 1.0 1.0 0.00 0.15 0.15 63 1016.2
20240530003430 86 9 1.0 2.0 0.00 0.15 0.15 63 1016.1
20240530002930 86 325 1.0 1.0 0.00 0.15 0.15 63 1016.0
20240530002428 86 34 0.0 0.0 0.00 0.15 0.15 62 1016.1
20240530001927 86 155 1.0 2.0 0.00 0.15 0.15 61 1016.3
20240530001426 87 142 2.0 3.0 0.00 0.15 0.15 60 1016.2
20240530000925 87 34 0.0 1.0 0.00 0.15 0.15 59 1016.3
20240530000423 87 305 0.0 1.0 0.00 0.15 0.15 59 1016.3
20240529235921 87 348 1.0 2.0 0.00 0.15 0.15 60 1016.3
20240529235421 86 184 3.0 3.0 0.00 0.15 0.15 61 1016.3
20240529234920 87 120 3.0 4.0 0.00 0.15 0.15 60 1016.2
20240529234418 88 117 3.0 6.0 0.00 0.15 0.15 59 1016.4
20240529233917 88 318 0.0 1.0 0.00 0.15 0.15 58 1016.3
20240529233417 88 327 2.0 3.0 0.00 0.15 0.15 58 1016.5
20240529232916 87 32 1.0 2.0 0.00 0.15 0.15 59 1016.5
20240529232413 89 163 2.0 3.0 0.00 0.15 0.15 58 1016.5
20240529231911 89 19 1.0 1.0 0.00 0.15 0.15 57 1016.6
20240529231409 88 308 1.0 1.0 0.00 0.15 0.15 59 1016.6
20240529230908 88 35 1.0 1.0 0.00 0.15 0.15 57 1016.6
20240529230406 88 201 1.0 1.0 0.00 0.15 0.15 59 1016.9
20240529225904 88 14 0.0 1.0 0.00 0.15 0.15 58 1016.8
20240529225403 87 210 0.0 1.0 0.00 0.15 0.15 59 1016.9
20240529224903 87 261 0.0 1.0 0.00 0.15 0.15 58 1016.7
20240529224403 87 63 3.0 4.0 0.00 0.15 0.15 58 1016.9
20240529223902 87 112 4.0 6.0 0.00 0.15 0.15 58 1016.9
20240529223401 89 127 4.0 8.0 0.00 0.15 0.15 55 1016.9
20240529222901 91 318 1.0 1.0 0.00 0.15 0.15 56 1016.8
20240529222400 88 269 0.0 1.0 0.00 0.15 0.15 54 1017.2
20240529221859 89 254 1.0 1.0 0.00 0.15 0.15 57 1017.0
20240529221358 89 157 3.0 3.0 0.00 0.15 0.15 55 1017.0
20240529220857 91 275 2.0 2.0 0.00 0.15 0.15 53 1016.9
20240529220355 92 41 1.0 2.0 0.00 0.15 0.15 51 1016.9
20240529215853 92 322 0.0 1.0 0.00 0.15 0.15 53 1016.9
20240529215351 89 173 1.0 1.0 0.00 0.15 0.15 55 1017.0
20240529214850 89 272 0.0 0.0 0.00 0.15 0.15 54 1017.1
20240529214349 89 68 3.0 3.0 0.00 0.15 0.15 54 1017.1
20240529213848 91 225 2.0 2.0 0.00 0.15 0.15 51 1017.3
20240529213347 91 279 0.0 0.0 0.00 0.15 0.15 53 1017.2
20240529212846 91 129 1.0 1.0 0.00 0.15 0.15 53 1017.3
20240529212345 88 321 0.0 0.0 0.00 0.15 0.15 57 1017.2
20240529211843 89 330 0.0 1.0 0.00 0.15 0.15 54 1017.3
20240529211342 89 182 0.0 0.0 0.00 0.15 0.15 57 1017.4
20240529210838 88 176 0.0 0.0 0.00 0.15 0.15 57 1017.3
20240529210337 88 321 0.0 1.0 0.00 0.15 0.15 55 1017.2
20240529205835 87 337 2.0 2.0 0.00 0.15 0.15 56 1017.4
20240529205335 87 286 0.0 1.0 0.00 0.15 0.15 56 1017.4
20240529204833 87 132 1.0 2.0 0.00 0.15 0.15 54 1017.5
20240529204332 87 110 2.0 3.0 0.00 0.15 0.15 57 1017.4
20240529203832 89 27 1.0 1.0 0.00 0.15 0.15 55 1017.6
20240529203331 90 241 4.0 4.0 0.00 0.15 0.15 54 1017.6
20240529202830 90 18 2.0 3.0 0.00 0.15 0.15 51 1017.5
20240529202328 89 341 1.0 2.0 0.00 0.15 0.15 53 1017.8
20240529201827 87 256 1.0 1.0 0.00 0.15 0.15 55 1017.7
20240529201324 88 354 1.0 1.0 0.00 0.15 0.15 54 1017.7
20240529200755 90 294 0.0 1.0 0.00 0.15 0.15 55 1017.7
20240529200254 88 341 0.0 1.0 0.00 0.15 0.15 55 1017.9
20240529195753 87 274 0.0 1.0 0.00 0.15 0.15 55 1018.1
20240529195252 88 151 2.0 2.0 0.00 0.15 0.15 56 1017.9
20240529194751 90 243 0.0 1.0 0.00 0.15 0.15 54 1018.1
20240529194251 91 311 0.0 1.0 0.00 0.15 0.15 51 1017.9
20240529193751 89 290 2.0 3.0 0.00 0.15 0.15 52 1017.9
20240529193250 89 322 1.0 2.0 0.00 0.15 0.15 53 1018.1
20240529192749 87 208 4.0 7.0 0.00 0.15 0.15 57 1018.1
20240529192247 90 157 1.0 2.0 0.00 0.15 0.15 53 1018.1
20240529191746 91 264 2.0 3.0 0.00 0.15 0.15 51 1018.2
20240529191244 90 125 3.0 4.0 0.00 0.15 0.15 55 1017.9
20240529190744 88 314 1.0 1.0 0.00 0.15 0.15 55 1018.1
20240529190242 88 316 0.0 1.0 0.00 0.15 0.15 56 1018.1
20240529185741 87 273 2.0 3.0 0.00 0.15 0.15 57 1018.4
20240529185240 87 118 5.0 6.0 0.00 0.15 0.15 60 1018.3
20240529184738 90 190 4.0 4.0 0.00 0.15 0.15 53 1018.2
20240529184236 90 292 1.0 1.0 0.00 0.15 0.15 55 1018.2
20240529183737 89 93 2.0 2.0 0.00 0.15 0.15 56 1018.3
20240529181245 87 322 3.0 3.0 0.00 0.15 0.15 53 1018.4
20240529180744 87 322 3.0 3.0 0.00 0.15 0.15 53 1018.4
20240529180242 86 0 0.0 1.0 0.00 0.15 0.15 60 1018.7
20240529175741 85 295 1.0 1.0 0.00 0.15 0.15 61 1018.5
20240529174942 86 19 3.0 3.0 0.00 0.15 0.15 60 1018.6
20240529174441 86 19 3.0 3.0 0.00 0.15 0.15 60 1018.6
20240529173940 85 83 2.0 2.0 0.00 0.15 0.15 61 1018.6
20240529173438 86 150 4.0 4.0 0.00 0.15 0.15 58 1018.5
20240529172936 86 153 2.0 2.0 0.00 0.15 0.15 62 1018.6
20240529172434 84 95 2.0 2.0 0.00 0.15 0.15 64 1018.6
20240529171933 85 183 1.0 2.0 0.00 0.15 0.15 64 1018.7
20240529171431 87 307 0.0 0.0 0.00 0.15 0.15 61 1018.9
20240529170929 87 264 0.0 1.0 0.00 0.15 0.15 60 1018.9
20240529170428 84 185 2.0 3.0 0.00 0.15 0.15 62 1018.9
20240529165927 84 98 4.0 6.0 0.00 0.15 0.15 63 1018.9
20240529165426 86 121 1.0 3.0 0.00 0.15 0.15 60 1019.1
20240529164925 83 275 0.0 0.0 0.00 0.15 0.15 67 1019.1
20240529164424 83 275 0.0 0.0 0.00 0.15 0.15 67 1019.1
20240529163923 86 86 0.0 1.0 0.00 0.15 0.15 61 1019.4
20240529163421 86 86 0.0 1.0 0.00 0.15 0.15 61 1019.4
20240529162920 86 86 0.0 1.0 0.00 0.15 0.15 61 1019.4
20240529162417 87 345 1.0 1.0 0.00 0.15 0.15 61 1019.5
20240529111301 69 302 0.0 0.0 0.00 0.15 0.15 95 1020.6
20240529110800 69 302 0.0 0.0 0.00 0.15 0.15 95 1020.6
20240529110258 69 302 0.0 0.0 0.00 0.15 0.15 95 1020.4
20240529105758 69 302 0.0 1.0 0.00 0.15 0.15 95 1020.4
20240529091026 71 251 2.0 3.0 0.00 0.15 0.15 91 1019.2
20240529090525 71 251 2.0 3.0 0.00 0.15 0.15 91 1019.2
20240529090024 71 324 1.0 1.0 0.00 0.15 0.15 91 1019.2
20240529085523 71 4 2.0 2.0 0.00 0.15 0.15 90 1019.3
20240529085022 71 340 1.0 2.0 0.00 0.15 0.15 90 1019.1
20240529084520 71 342 2.0 2.0 0.00 0.15 0.15 89 1019.0
20240529084018 71 340 3.0 4.0 0.00 0.15 0.15 89 1018.7
20240529083516 72 353 1.0 2.0 0.00 0.15 0.15 89 1018.6
20240529083015 72 7 3.0 6.0 0.00 0.15 0.15 88 1018.4
20240529082515 72 337 4.0 7.0 0.00 0.15 0.15 87 1018.2
20240529082014 72 311 6.0 7.0 0.00 0.15 0.15 87 1018.1
20240529081512 73 60 3.0 4.0 0.00 0.15 0.15 87 1018.3
20240529081011 73 324 2.0 2.0 0.00 0.15 0.15 86 1018.2
20240529080510 73 52 2.0 3.0 0.00 0.15 0.15 86 1018.2
20240529080008 73 314 2.0 3.0 0.00 0.15 0.15 86 1018.2
20240529075507 73 340 2.0 3.0 0.00 0.15 0.15 86 1018.3
20240529075006 73 287 2.0 4.0 0.00 0.15 0.15 85 1017.9
20240529074506 73 295 0.0 1.0 0.00 0.15 0.15 84 1018.2
20240529074005 73 321 3.0 4.0 0.00 0.15 0.15 83 1017.8
20240529073505 73 339 3.0 3.0 0.00 0.15 0.15 83 1018.1
20240529073005 73 313 3.0 4.0 0.00 0.15 0.15 82 1018.3
20240529072505 74 328 2.0 2.0 0.00 0.15 0.15 81 1018.5
20240529072003 73 317 1.0 1.0 0.00 0.15 0.15 79 1018.6
20240529071501 74 288 2.0 2.0 0.00 0.15 0.15 78 1018.8
20240529070959 73 268 3.0 7.0 0.00 0.15 0.15 79 1018.7
20240529070500 73 347 2.0 2.0 0.00 0.15 0.15 82 1018.7
20240529065959 73 310 2.0 2.0 0.00 0.15 0.15 83 1018.6
20240529065459 73 333 3.0 4.0 0.00 0.15 0.15 82 1018.4
20240529064958 75 11 3.0 4.0 0.00 0.15 0.15 80 1017.3
20240529064456 74 342 3.0 4.0 0.00 0.15 0.15 75 1017.0
20240529063954 73 23 2.0 4.0 0.00 0.15 0.15 84 1015.7
20240529063453 74 310 3.0 4.0 0.00 0.15 0.15 83 1015.5
20240529062952 73 154 13.0 17.0 0.00 0.15 0.15 80 1012.8
20240529062451 72 139 7.0 10.0 0.00 0.15 0.15 88 1012.2
20240529061950 72 171 20.0 27.0 0.00 0.15 0.15 90 1012.7
20240529061450 71 206 11.0 18.0 0.00 0.15 0.15 89 1012.5
20240529060949 71 138 15.0 24.0 0.00 0.15 0.15 90 1012.5
20240529060447 70 140 15.0 22.0 0.00 0.15 0.15 93 1013.7
20240529055947 70 147 11.0 15.0 0.00 0.15 0.15 95 1013.4
20240529055446 69 165 13.0 15.0 0.00 0.15 0.15 95 1013.0
20240529054945 69 149 9.0 15.0 0.00 0.15 0.15 93 1012.9
20240529054445 70 189 12.0 15.0 0.00 0.15 0.15 91 1013.9
20240529053943 71 208 4.0 7.0 0.07 0.15 0.15 87 1013.6
20240529053441 68 156 11.0 15.0 0.07 0.15 0.15 90 1014.3
20240529052940 68 263 9.0 13.0 0.00 0.13 0.13 96 1015.8
20240529052440 68 231 6.0 7.0 0.00 0.13 0.13 97 1017.2
20240529051938 69 155 6.0 9.0 0.11 0.13 0.13 97 1017.8
20240529051437 69 24 1.0 1.0 0.42 0.13 0.13 96 1019.5
20240529050936 69 28 1.0 1.0 1.01 0.11 0.11 96 1020.1
20240529050435 69 250 1.0 1.0 1.13 0.07 0.07 95 1021.4
20240529045933 71 151 2.0 2.0 1.08 0.28 0.28 95 1022.1
20240529045433 72 179 5.0 7.0 0.82 0.18 0.18 94 1022.4
20240529044932 73 328 4.0 6.0 0.42 0.09 0.09 92 1022.4
20240529044430 74 268 2.0 3.0 0.26 0.05 0.05 90 1021.9
20240529043928 75 301 2.0 2.0 0.16 0.02 0.02 87 1021.6
20240529043426 75 305 1.0 1.0 0.04 0.00 0.00 85 1021.6
20240529042925 75 301 1.0 1.0 0.00 0.00 0.00 83 1021.4
20240529042424 75 289 1.0 1.0 0.00 0.00 0.00 84 1020.6
20240529041922 75 287 1.0 1.0 0.00 0.00 0.00 83 1020.2
20240529041421 76 11 0.0 0.0 0.00 0.00 0.00 83 1019.9
20240529040920 76 11 0.0 0.0 0.00 0.00 0.00 81 1020.0
20240529040418 76 11 1.0 1.0 0.00 0.00 0.00 78 1019.8
20240529035918 77 228 1.0 1.0 0.00 0.00 0.00 75 1019.6
20240529035417 78 310 0.0 1.0 0.00 0.00 0.00 74 1019.4
20240529035043 78 66 2.0 2.0 0.00 0.00 0.00 73 1019.1
20240529034729 78 137 0.0 1.0 0.00 0.00 0.00 72 1019.1
20240529033707 78 45 0.0 0.0 0.00 0.00 0.00 72 1019.7
20240529032201 78 295 1.0 1.0 0.00 0.00 0.00 72 1019.6
20240529030323 78 3 0.0 0.0 0.00 0.00 0.00 71 1018.9
20240529024937 78 1 0.0 0.0 0.00 0.00 0.00 71 1018.5
20240529023729 79 1 0.0 0.0 0.00 0.00 0.00 70 1018.5
20240529022319 80 0 0.0 0.0 0.00 0.00 0.00 67 1018.3
20240529021053 80 75 0.0 0.0 0.00 0.00 0.00 67 1017.8
20240529020426 80 332 0.0 0.0 0.00 0.00 0.00 64 1017.6
20240529014718 80 177 2.0 3.0 0.00 0.00 0.00 63 1017.6
20240529013548 81 113 3.0 3.0 0.00 0.00 0.00 61 1017.2